Location: Unspecified
(49.2170°N, 0.0000°E)
Time: 08:45:57
(UTC+00:00)

Courier 1B Rocket - All Passes

Search period start: 26 June 2019 00:00
Search period end: 06 July 2019 00:00
Orbit: 920 x 1202 km, 28.2° (Epoch: 25 June)

Date Brightness Start Highest point End Pass type
(mag) Time Alt. Az. Time Alt. Az. Time Alt. Az.
26 Jun - 03:33:37 10° S 03:35:29 11° S 03:37:21 10° SSE daylight
26 Jun - 05:26:05 10° SSW 05:27:30 11° S 05:28:54 10° S daylight
27 Jun - 02:34:03 10° S 02:34:51 10° SSE 02:35:37 10° SSE visible
27 Jun - 04:24:28 10° SSW 04:26:54 12° S 04:29:16 10° SSE daylight
28 Jun - 03:23:28 10° SSW 03:26:14 12° S 03:28:58 10° SSE daylight
29 Jun - 02:22:52 10° SSW 02:25:34 12° S 02:28:13 10° SSE visible
29 Jun - 04:15:21 10° SSW 04:17:38 12° S 04:19:52 10° S daylight
30 Jun - 01:22:49 10° S 01:24:52 11° SSE 01:26:54 10° SSE visible
30 Jun - 03:13:55 10° SSW 03:16:59 13° S 03:19:59 10° SSE visible
01 Jul - 02:12:56 10° SSW 02:16:17 13° S 02:19:34 10° SSE visible
01 Jul - 04:06:59 10° SSW 04:08:21 11° SSW 04:09:42 10° S daylight
02 Jul - 01:12:19 10° SSW 01:15:34 13° S 01:18:46 10° SSE visible
02 Jul - 03:04:47 10° SSW 03:07:41 13° S 03:10:33 10° SSE visible
03 Jul - 00:12:11 10° S 00:14:49 12° SSE 00:17:27 10° SSE visible
03 Jul - 02:03:26 10° SSW 02:07:00 14° S 02:10:28 10° SSE visible
03 Jul - 23:13:45 10° SSE 23:14:07 10° SSE 23:14:28 10° SSE night (unlit)
04 Jul - 01:02:30 10° SSW 01:06:15 14° S 01:09:57 10° SSE visible
04 Jul - 02:56:12 10° SSW 02:58:22 11° SSW 03:00:30 10° S visible
05 Jul - 00:01:56 10° SSW 00:05:30 14° S 00:09:02 10° SE visible
05 Jul - 01:54:20 10° SW 01:57:40 13° S 02:00:57 10° SSE visible
05 Jul - 23:01:52 10° S 23:04:45 12° SSE 23:07:37 10° SE night (unlit)
